Regional Weather Roundup
Issued by NWS

Home | Current Version | Previous Version | Text Only | Print | Product List | Glossary Off
Versions: 1 2 3 4 5 6 7 8 9 10 11 12 13 14 15 16 17 18 19 20 21 22 23 24 25 26 27 28 29 30 31 32 33 34 35 36 37 38 39 40 41 42 43 44 45 46 47 48 49

000
ASUS45 KBOU 310807
RWRCO

WEATHER ROUNDUP FOR COLORADO
NATIONAL WEATHER SERVICE DENVER/BOULDER CO
200 AM MDT MON AUG 31 2015

NOTE: "FAIR" INDICATES FEW OR NO CLOUDS BELOW 12000 FEET WITH NO
SIGNIFICANT WEATHER AND/OR OBSTRUCTIONS TO VISIBILITY.

COZ001>005-013-030-031-310900-
...NORTHWEST COLORADO...

CITY           SKY/WX    TMP DP  RH WIND       PRES   REMARKS
CRAIG          CLOUDY    62  48  60 E7        30.21S
HAYDEN         NOT AVBL
MEEKER         NOT AVBL
MOUNT WERNER   NOT AVBL
STEAMBOAT SPGS CLOUDY    54  50  87 E8        30.26F
WALDEN         CLOUDY    54  43  66 S15G24    30.29S
$$

COZ006>008-011-310900-
...WEST CENTRAL VALLEYS...

CITY           SKY/WX    TMP DP  RH WIND       PRES   REMARKS
GRAND JUNCTION CLOUDY    61  60  97 SW3       30.13F
MONTROSE       CLOUDY    59  56  89 E6        30.22F
EAGLE          CLOUDY    57  55  94 CALM      30.32R
RIFLE          LGT RAIN  59  56  89 VRB6      30.22F
DELTA          CLOUDY    66  58  75 N5        30.18S
NUCLA          CLOUDY    66  50  55 E5        30.21F
$$

COZ017>023-064>068-310900-
...SOUTHWEST COLORADO...

CITY           SKY/WX    TMP DP  RH WIND       PRES   REMARKS
DURANGO        MOCLDY    61  48  62 NW3       30.23S
CORTEZ         CLEAR     58  53  84 E5        30.19R
PAGOSA SPRINGS CLOUDY    61  46  56 CALM      30.30F
TELLURIDE      CLOUDY    57  46  66 S5        30.41S
WOLF CREEK PAS MOCLDY    43  41  93 SW13      30.61S
$$

COZ009-010-012-014-032>034-037-058>063-310900-
...CENTRAL COLORADO...

CITY           SKY/WX    TMP DP  RH WIND       PRES   REMARKS
ASPEN          CLOUDY    54  52  93 N6        30.35R
BUENA VISTA    MOCLDY    64  41  43 NW14G23   30.27F
COPPER MTN     DRIZZLE   46  41  81 CALM      30.59F
BERTHOUD PASS  HAZE      37  27  65 N12G30    30.61S VSB 1/4
COTTONWOOD PAS MOCLDY    61  37  41 W10G20    30.41F
GUNNISON       MOCLDY    55  46  71 CALM      30.34R
KREMMLING      RAIN      57  46  67 SW3       30.32S
LEADVILLE      CLOUDY    51  44  77 N12       30.44F
SALIDA         MOCLDY    66  42  42 CALM      30.32R
SUNLIGHT       CLOUDY    45  45 100 W5        30.54F
WILKERSON PASS MOCLDY    50  34  53 W10G17    30.53S
$$

COZ069>075-310900-
...SAN LUIS VALLEY/SANGRE DE CRISTO MOUNTAINS...

CITY           SKY/WX    TMP DP  RH WIND       PRES   REMARKS
ALAMOSA        MOCLDY    53  43  68 E6        30.25F
LA VETA PASS   CLEAR     54  39  58 MISG      30.42S
SAGUACHE       NOT AVBL
$$

COZ035-036-038>040-310900-
...NORTHERN COLORADO FRONT RANGE...

CITY           SKY/WX    TMP DP  RH WIND       PRES   REMARKS
DENVER INTL AP MOCLDY    72  45  37 W14       30.01R
DMNS CITY PARK   N/A     72  45  38 NW6G16    30.03R
AURORA         MOCLDY    72  46  38 W9        30.04R
FRONT RANGE AP NOT AVBL
ERIE MUNI ARPT CLOUDY    70  44  40 W3        30.00S
BOULDER MUN AP CLOUDY    72  46  40 SE3       30.02S
CENTENNIAL     MOCLDY    73  43  33 W8        30.05S
BROOMFIELD     CLOUDY    73  43  33 N10       30.05S
FORT COLLINS   CLOUDY    70  52  52 SW3       30.00S
LONGMONT       CLOUDY    69  51  52 CALM      30.01F
$$

COZ041-046-047-076>085-087-088-310900-
...PIKES PEAK/PALMER DIVIDE AND SOUTHERN FOOTHILLS...

CITY           SKY/WX    TMP DP  RH WIND       PRES   REMARKS
COLO. SPRINGS  PTCLDY    61  48  62 N12       30.08F
A. F. ACADEMY  PTCLDY    56  45  68 N10       30.11F
ELLICOTT       NOT AVBL
FALCON         PTCLDY    61  49  65 MISG      30.14S
FORT CARSON    PTCLDY    63  46  53 NW12      30.04F
LIMON          PTCLDY    56  47  71 CALM      30.03F
MONUMENT HILL  MOCLDY    63  45  51 W8        30.14S
TRINIDAD       CLEAR     71  50  47 SW14G22   30.05F
$$

COZ042>045-048>051-090-091-310900-
...NORTHEAST COLORADO...

CITY           SKY/WX    TMP DP  RH WIND       PRES   REMARKS
GREELEY ARPT   CLOUDY    72  46  40 N6        29.97S
AKRON          PTCLDY    69  46  43 S14       29.97S
BURLINGTON     CLEAR     64  48  56 S15       29.99F
WRAY           CLEAR     71  46  41 S16G25    29.93F
STERLING       PTCLDY    63  50  63 S7        29.93F
HOLYOKE        CLEAR     63  43  48 CALM      29.94S
FORT MORGAN    PTCLDY    70  49  48 SE8       29.96S
$$

COZ086-089-092>099-310900-
...SOUTHEAST COLORADO...

CITY           SKY/WX    TMP DP  RH WIND       PRES   REMARKS
PUEBLO         CLEAR     66  47  50 W12       29.96R
LA JUNTA       CLEAR     77  52  41 S9        29.93F
LAMAR          CLEAR     60  52  74 E8        29.92F HAZE
SPRINGFIELD    NOT AVBL
$$



USA.gov is the U.S. government's official web portal to all federal, state and local government web resources and services.